User: anonymous   Login
Location: Unspecified
(0.0000°N, 0.0000°E)
Time: 23:13:57
(UTC+00:00)
Language:

RS-7 - Orbit

View from above orbital plane
View from above orbital plane
View from above satellite
View from above satellite

Ground track
Ground track

The orbit data is extracted from the following two-line orbital elements,

1 13001U 81120E   22228.88679825  .00000103  00000-0  10391-2 0  9996
2 13001  82.9554  69.6756 0024282  25.3416 103.6319 12.08913178794236
Epoch (UTC): 16 August 2022 21:16:59
Eccentricity: 0.0024282
inclination: 82.9554°
perigee height: 1622 km
apogee height: 1660 km
right ascension of ascending node: 69.6756°
argument of perigee: 25.3416°
revolutions per day: 12.08913178
mean anomaly at epoch: 103.6319°
orbit number at epoch: 79423

The dashed part of the orbit path shows where the satellite is in the earth's shadow,  

DLR